Regional Weather Roundup
Issued by NWS

Home | Current Version | Previous Version | Text Only | Print | Product List | Glossary Off
Versions: 1 2 3 4 5 6 7 8 9 10 11 12 13 14 15 16 17 18 19 20 21 22 23 24 25 26 27 28 29 30 31 32 33 34 35 36 37 38 39 40 41 42 43 44 45 46 47 48 49 50

171
ASUS43 KMKX 251321
RWRWI

WISCONSIN REGIONAL WEATHER ROUNDUP
NATIONAL WEATHER SERVICE MILWAUKEE/SULLIVAN WI
700 AM CST SAT FEB 25 2017

NOTE: "FAIR" INDICATES FEW OR NO CLOUDS BELOW 12,000 FEET WITH NO
SIGNIFICANT WEATHER AND/OR OBSTRUCTIONS TO VISIBILITY.

WIZ001-002-006>008-014>016-023>028-251400-
NORTHWEST WISCONSIN

CITY           SKY/WX    TMP DP  RH WIND       PRES   REMARKS
SUPERIOR ARPT  PTCLDY     8   3  78 NW6       29.88S WCI  -2
ASHLAND        CLOUDY    14   7  73 W12G21    29.80R WCI   0
HAYWARD        CLOUDY    11   3  70 NW8G17    29.80R WCI  -1
SIREN          CLEAR     11   3  71 NW12G17   29.88R WCI  -4
CUMBERLAND     PTCLDY    10   3  72 NW17      29.82R WCI  -7
RICE LAKE      PTCLDY    11   4  71 NW5G16    29.84R WCI   3
CHETEK         MOCLDY    10   3  72 NW3       29.83R
LADYSMITH      LGT SNOW  13   7  76 NW10      29.78R WCI   0
EAU CLAIRE     CLEAR     11   3  70 W9        29.83R WCI  -2
MENOMONIE      CLEAR     12   4  69 W12       29.86R WCI  -2
NEW RICHMOND   CLEAR     13   4  67 NW14G21   29.88S WCI  -2
OSCEOLA        CLEAR     14   5  67 NW12G23   29.93R WCI   0
$$

WIZ003>005-009-010-017-018-251400-
NORTH CENTRAL WISCONSIN

CITY           SKY/WX    TMP DP  RH WIND       PRES   REMARKS
MANITOWISH WTR LGT SNOW  11   9  90 NW13      29.64R WCI  -3
ARBOR VITAE    LGT SNOW  14  10  83 NW14G20     N/A  WCI  -1
WOODRUFF       LGT SNOW  14  10  83 NW14G20     N/A  WCI  -1
RHINELANDER    LGT SNOW  14   9  80 W10       29.62S WCI   1
EAGLE RIVER    LGT SNOW  14   9  79 NW13      29.60R WCI   0
LAND O LAKES   LGT SNOW  15  10  83 NW9G18    29.60S WCI   3
PHILLIPS       FLURRIES  10   6  82 NW9G16    29.70R WCI  -3
TOMAHAWK       LGT SNOW  12   7  81 NW12G18   29.67S WCI  -2
MEDFORD        CLOUDY    11   4  72 NW14G22   29.70R HAZE    WCI  -5
MERRILL        NOT AVBL
$$

WIZ029-030-035-036-043>047-251400-
CENTRAL WISCONSIN

CITY           SKY/WX    TMP DP  RH WIND       PRES   REMARKS
WAUSAU         LGT SNOW  14   8  77 NW12G20   29.68R WCI   0
MOSINEE        LGT SNOW  14  10  85 NW15      29.70R WCI  -1
MARSHFIELD     LGT SNOW  12   4  70 NW25      29.72R WCI  -8
STEVENS POINT  CLOUDY    14   7  73 NW10G18   29.71R WCI   1
WAUPACA        LGT SNOW  19  14  81 W10       29.71R WCI   7
WAUTOMA        LGT SNOW  16  12  86 NW9       29.74R FOG     WCI   4
WISC RAPIDS    CLOUDY    14   6  70 NW17G35   29.75R WCI  -3
CAMP DOUGLAS   CLOUDY    14   6  71 NW9       29.78R WCI   1
$$

WIZ011>013-019>022-031-037>040-048>050-251400-
NORTHEAST WISCONSIN

CITY           SKY/WX    TMP DP  RH WIND       PRES   REMARKS
ANTIGO         LGT SNOW  13  10  87 NW16      29.62R WCI  -3
SHAWANO        LGT SNOW  20  17  86 CALM      29.67R VSB 1
OCONTO         CLOUDY    19  15  87 W9        29.64R WCI   7
STURGEON BAY   LGT SNOW  19  16  86 NW18G29   29.62R VSB 1   WCI   4
GREEN BAY      LGT SNOW  20  16  84 W13       29.67R FOG     WCI   7
MANITOWOC      LGT SNOW  19  16  88 NW18      29.64R FOG     WCI   4
APPLETON       LGT SNOW  18  12  79 W12       29.65R WCI   5
CLINTONVILLE   LGT SNOW  19  14  79 W15       29.68R WCI   5
OSHKOSH        MIX PCPN  17  13  84 NW16      29.69R FOG     WCI   2
$$

WIZ032>034-041-042-053>061-251400-
SOUTHWEST WISCONSIN

CITY           SKY/WX    TMP DP  RH WIND       PRES   REMARKS
LA CROSSE      CLEAR     17   6  62 NW21      29.85R WCI   0
SPARTA         PTCLDY    15   8  75 W16G24    29.83R WCI  -1
VIROQUA        CLOUDY    15   9  78 NW16      29.79R WCI  -1
BOSCOBEL       CLOUDY    19   9  65 W12G17    29.85R WCI   7
PRAIRIE DU CHI PTCLDY    18   7  63 NW15G21   29.87R WCI   4
PLATTEVILLE    PTCLDY    17  12  82 NW5       29.82R WCI  10
$$

WIZ056-057-062-063-064-067-068-251400-
SOUTH CENTRAL WISCONSIN

CITY           SKY/WX    TMP DP  RH WIND       PRES   REMARKS
REEDSBURG      CLOUDY    15   7  73 NW9G24    29.79R HAZE    WCI   3
BARABOO/DELLS  LGT SNOW  16  11  80 NW9       29.76R WCI   5
LONE ROCK      MOCLDY    17   7  64 NW16G23   29.82R WCI   2
MINERAL POINT  CLOUDY    19  14  79 CALM      29.78R
MADISON        LGT SNOW  18  13  80 NW8       29.75R WCI   8
MIDDLETON      CLOUDY    19  15  85 NW6       29.76R WCI  11
WATERTOWN      CLOUDY    18  15  88 NW13G18   29.72R FOG     WCI   4
MONROE         CLEAR     19  16  86 W13       29.76R WCI   7
JANESVILLE     LGT SNOW  19  18  93 NW16G22   29.76R WCI   5
$$

WIZ051-052-058>065-066-070>072-251400-
SOUTHEAST WISCONSIN

CITY           SKY/WX    TMP DP  RH WIND       PRES   REMARKS
MILWAUKEE      LGT SNOW  21  15  78 W15       29.69R WCI   8
WAUKESHA       LGT SNOW  18  14  86 W17G24    29.70R VSB 1   WCI   2
MILWAUKEE/TIMM LGT SNOW  19  14  79 W18       29.69R WCI   4
RACINE         CLOUDY    21  14  74 NW12G22   29.71R WCI   9
KENOSHA        LGT SNOW  21  15  78 W16G22    29.71R WCI   7
FOND DU LAC    LGT SNOW  18  12  77 NW20G26   29.70R WCI   2
SHEBOYGAN      LGT SNOW  19  14  81 NW15G26   29.66R WCI   5
WEST BEND      LGT SNOW  19  18  93 NW5       29.67R WCI  13
JUNEAU         LGT SNOW  16  13  86 W6        29.72R WCI   8
$$

LSZ147-162-251400-
LAKE SUPERIOR

STATION/POSITION TIME  TEMP    WIND        PRES    WAVE
                       AIR SEA DIR/SP/G            HT/PER
                 (UTC) (F)     (DEG/KT/KT) (MB)    (FT/S)
DEVILS ISLAND    1300   16     330/ 19/ 23 1010.0R
PORT WING        1230   16     340/ 14/ 22 1010.2R
SAXON HARBOR     1230   17     280/ 11/ 16 1007.8R
$$

LMZ867-665-643>646-251400-
LAKE MICHIGAN

STATION/POSITION TIME  TEMP    WIND        PRES    WAVE
                       AIR SEA DIR/SP/G            HT/PER
                 (UTC) (F)     (DEG/KT/KT) (MB)    (FT/S)
CHAMBERS ISLAND  1040   21     300/  2/  3 1000.0
NORTHPORT PIER   1240   21     310/  2/  3 1001.0R
SISTER BAY       1235   20        CALM       N/A
KEWAUNEE LAKESHO 1254   19     330/ 19/ 24 1002.4R
SHEBOYGAN LAKESH 1300   20     300/  7/  8 1004.9R
PORT WASHINGTON  1230   21     290/  8/ 19 1005.8R
MILWAUKEE LAKESH 1250   21     300/ 11/ 14   N/A
KENOSHA   LAKESH 1300   21     300/ 13/ 23 1006.4
$$

TC  - TEMPERATURE IN CELSIUS
VSB - VISIBILITY IN STATUTE MILES
WCI - WIND CHILL INDEX
HX  - HEAT INDEX





USA.gov is the U.S. government's official web portal to all federal, state and local government web resources and services.